QPF
0.00 0.00 0.00 0.00 0.00 0.00 0.00 0.00 0.00 0.00 0.00 0.00 0.00 0.00 0.00 0.00 0.00 0.00 0.00 0.00 0.00 0.00 0.00 0.00 0.00 0.00 0.00 0.00 0.00 0.00 0.00 0.00 0.00 0.00 0.00 0.00 0.00 0.00 0.00 0.00 0.00 0.00 0.00 0.00 0.00 0.00 0.00 0.00 0.00 0.00 0.00 0.00 0.00 0.00
0.00 0.00 0.00 0.00 0.00 0.00 0.00 0.00 0.00 0.00 0.00 0.00 0.00 0.00 0.00 0.00 0.00 0.00 0.00 0.00 0.00 0.00 0.00 0.00 0.00 0.00 0.00 0.00 0.00 0.00 0.00 0.00 0.00 0.00 0.00 0.00 0.00 0.00 0.00 0.00 0.00 0.00 0.00 0.00 0.00 0.00 0.01 0.00 0.00 0.00 0.00 0.00 0.00 0.00
0.00 0.00 0.00 0.00 0.00 0.00 0.00 0.00 0.00 0.00 0.00 0.00 0.00 0.00 0.00 0.00 0.00 0.00 0.00 0.00 0.00 0.00 0.00 0.00 0.00 0.00 0.00 0.00 0.00 0.00 0.00 0.00 0.00 0.00 0.00 0.00 0.00 0.00 0.00 0.00 0.00 0.00 0.00 0.00 0.00 0.00 0.00 0.00 0.00 0.00 0.00 0.00 0.00 0.00
0.00 0.00 0.00 0.00 0.00 0.00 0.00 0.00 0.00 0.00 0.00 0.00 0.00 0.00 0.00 0.00 0.00 0.00 0.00 0.00 0.00 0.00 0.00 0.00 0.00 0.00 0.00 0.00 0.00 0.00 0.00 0.00 0.00 0.00 0.00 0.00 0.00 0.00 0.00 0.00 0.00 0.00 0.00 0.00 0.00 0.00 0.00 0.00 0.00 0.00 0.00 0.00 0.00 0.00
0.00 0.00 0.00 0.00 0.00 0.00 0.00 0.00 0.00 0.00 0.00 0.00 0.00 0.00 0.00 0.00 0.00 0.00 0.00 0.00 0.00 0.00 0.00 0.00 0.00 0.00 0.00 0.00 0.00 0.00 0.00 0.00 0.00 0.00 0.00 0.00 0.00 0.00 0.00 0.00 0.00 0.00 0.00 0.00 0.03 0.01 0.00 0.01 0.00 0.00 0.00 0.00 0.00 0.00
0.00 0.00 0.00 0.00 0.00 0.00 0.00 0.00 0.00 0.00 0.00 0.00 0.00 0.00 0.00 0.00 0.00 0.00 0.00 0.00 0.00 0.00 0.00 0.00 0.00 0.00 0.00 0.00 0.00 0.00 0.00 0.00 0.00 0.00 0.00 0.00 0.00 0.00 0.00 0.00 0.00 0.00 0.00 0.00 0.00 0.00 0.00 0.00 0.00 0.00 0.00 0.00 0.00 0.00
0.00 0.00 0.00 0.00 0.00 0.00 0.00 0.00 0.00 0.00 0.00 0.00 0.00 0.00 0.00 0.00 0.00 0.00 0.00 0.00 0.00 0.00 0.00 0.00 0.00 0.00 0.00 0.00 0.00 0.00 0.00 0.00 0.00 0.00 0.00 0.00 0.00 0.00 0.00 0.00 0.00 0.00 0.00 0.00 0.00 0.00 0.01 0.00 0.01 0.04 0.05 0.00 0.00 0.00
0.00 0.00 0.00 0.00 0.00 0.00 0.00 0.00 0.00 0.00 0.00 0.00 0.00 0.00 0.00 0.00 0.00 0.00 0.00 0.00 0.00 0.00 0.00 0.00 0.00 0.00 0.00 0.00 0.00 0.00 0.00 0.00 0.00 0.00 0.00 0.00 0.00 0.00 0.00 0.00 0.00 0.00 0.00 0.00 0.00 0.00 0.00 0.00 0.00 0.00 0.01 0.03 0.08 0.10
0.00 0.00 0.00 0.00 0.00 0.00 0.00 0.00 0.00 0.00 0.00 0.00 0.00 0.00 0.00 0.00 0.00 0.00 0.00 0.00 0.00 0.00 0.00 0.00 0.00 0.00 0.00 0.00 0.00 0.00 0.00 0.00 0.00 0.00 0.00 0.00 0.00 0.00 0.00 0.00 0.00 0.00 0.00 0.00 0.00 0.00 0.00 0.00 0.01 0.00 0.00 0.03 0.05 0.05
0.00 0.00 0.01 0.01 0.00 0.00 0.00 0.00 0.00 0.00 0.00 0.00 0.00 0.00 0.00 0.00 0.00 0.00 0.00 0.00 0.00 0.00 0.00 0.00 0.00 0.00 0.00 0.00 0.00 0.00 0.00 0.00 0.00 0.00 0.00 0.00 0.00 0.00 0.00 0.00 0.00 0.00 0.00 0.00 0.00 0.00 0.00 0.00 0.00 0.00 0.00 0.00 0.00 0.00
0.01 0.01 0.02 0.02 0.01 0.00 0.00 0.00 0.00 0.00 0.00 0.00 0.00 0.00 0.00 0.00 0.00 0.00 0.00 0.00 0.00 0.00 0.00 0.00 0.00 0.00 0.00 0.00 0.00 0.00 0.00 0.00 0.00 0.00 0.00 0.00 0.00 0.00 0.00 0.00 0.00 0.00 0.00 0.00 0.00 0.00 0.00 0.00 0.00 0.00 0.00 0.00 0.00 0.00
0.01 0.01 0.01 0.01 0.01 0.00 0.00 0.00 0.00 0.00 0.00 0.00 0.00 0.00 0.00 0.00 0.00 0.00 0.00 0.00 0.00 0.00 0.00 0.00 0.00 0.00 0.00 0.00 0.02 0.02 0.00 0.00 0.00 0.00 0.00 0.00 0.04 0.00 0.00 0.00 0.00 0.00 0.00 0.00 0.00 0.00 0.00 0.00 0.00 0.00 0.00 0.00 0.00 0.00
0.00 0.01 0.01 0.01 0.01 0.00 0.00 0.00 0.00 0.00 0.00 0.00 0.00 0.00 0.00 0.00 0.00 0.00 0.00 0.00 0.00 0.00 0.00 0.00 0.00 0.00 0.00 0.00 0.01 0.01 0.03 0.02 0.01 0.01 0.01 0.07 0.03 0.00 0.00 0.00 0.00 0.00 0.00 0.00 0.00 0.00 0.00 0.00 0.00 0.00 0.00 0.00 0.00 0.00
0.00 0.00 0.00 0.00 0.02 0.00 0.00 0.00 0.00 0.00 0.00 0.00 0.00 0.00 0.00 0.00 0.00 0.00 0.00 0.00 0.00 0.00 0.00 0.01 0.00 0.00 0.00 0.05 0.02 0.10 0.02 0.03 0.06 0.03 0.08 0.08 0.01 0.00 0.00 0.00 0.00 0.00 0.00 0.00 0.00 0.00 0.00 0.00 0.00 0.00 0.00 0.00 0.00 0.00
0.00 0.01 0.01 0.01 0.00 0.00 0.00 0.00 0.00 0.00 0.00 0.00 0.00 0.00 0.00 0.00 0.00 0.00 0.00 0.00 0.00 0.00 0.02 0.02 0.00 0.00 0.00 0.01 0.01 0.02 0.04 0.05 0.03 0.12 0.13 0.10 0.08 0.08 0.01 0.00 0.00 0.00 0.00 0.00 0.00 0.00 0.00 0.00 0.00 0.00 0.00 0.00 0.00 0.00
0.01 0.03 0.03 0.01 0.00 0.00 0.00 0.00 0.00 0.00 0.00 0.00 0.00 0.00 0.00 0.00 0.00 0.00 0.00 0.00 0.00 0.01 0.03 0.02 0.01 0.01 0.01 0.00 0.02 0.03 0.02 0.08 0.16 0.14 0.10 0.06 0.06 0.02 0.00 0.00 0.00 0.00 0.00 0.00 0.00 0.00 0.00 0.00 0.00 0.00 0.00 0.00 0.00 0.00
0.03 0.04 0.02 0.00 0.00 0.00 0.00 0.00 0.00 0.00 0.00 0.00 0.00 0.00 0.00 0.00 0.00 0.00 0.00 0.00 0.00 0.04 0.08 0.05 0.05 0.02 0.02 0.02 0.00 0.01 0.07 0.09 0.09 0.12 0.12 0.09 0.06 0.02 0.00 0.00 0.00 0.00 0.00 0.00 0.00 0.00 0.00 0.00 0.00 0.01 0.01 0.01 0.00 0.00
0.03 0.03 0.00 0.00 0.00 0.00 0.00 0.00 0.00 0.00 0.00 0.00 0.00 0.00 0.00 0.00 0.00 0.01 0.01 0.00 0.02 0.07 0.08 0.06 0.02 0.03 0.02 0.03 0.07 0.03 0.05 0.05 0.03 0.02 0.01 0.00 0.00 0.00 0.00 0.00 0.00 0.00 0.00 0.00 0.02 0.04 0.03 0.03 0.02 0.02 0.01 0.01 0.00 0.01
0.03 0.01 0.00 0.00 0.00 0.00 0.00 0.00 0.00 0.00 0.00 0.00 0.00 0.00 0.00 0.00 0.02 0.01 0.00 0.00 0.00 0.00 0.00 0.00 0.00 0.00 0.03 0.01 0.03 0.06 0.07 0.07 0.07 0.02 0.00 0.00 0.00 0.00 0.00 0.01 0.02 0.02 0.01 0.01 0.03 0.02 0.01 0.02 0.01 0.00 0.00 0.00 0.01 0.01
0.00 0.00 0.00 0.00 0.00 0.00 0.00 0.00 0.00 0.00 0.01 0.00 0.00 0.00 0.02 0.05 0.03 0.00 0.00 0.00 0.00 0.00 0.00 0.00 0.00 0.01 0.01 0.00 0.01 0.03 0.03 0.01 0.00 0.00 0.00 0.00 0.00 0.01 0.01 0.02 0.04 0.07 0.03 0.01 0.05 0.02 0.04 0.02 0.00 0.01 0.00 0.00 0.01 0.01
0.00 0.00 0.00 0.00 0.01 0.02 0.01 0.00 0.00 0.00 0.02 0.02 0.02 0.02 0.05 0.09 0.07 0.02 0.01 0.00 0.00 0.00 0.00 0.00 0.00 0.00 0.00 0.00 0.00 0.00 0.00 0.00 0.00 0.00 0.00 0.00 0.00 0.00 0.00 0.00 0.01 0.04 0.01 0.00 0.02 0.00 0.01 0.03 0.03 0.04 0.01 0.00 0.00 0.01
0.00 0.00 0.00 0.00 0.02 0.03 0.02 0.02 0.03 0.01 0.03 0.06 0.06 0.05 0.09 0.11 0.08 0.02 0.00 0.00 0.00 0.00 0.00 0.00 0.00 0.00 0.00 0.00 0.00 0.00 0.00 0.00 0.00 0.00 0.00 0.01 0.00 0.00 0.01 0.01 0.02 0.01 0.00 0.02 0.04 0.03 0.01 0.00 0.01 0.01 0.00 0.00 0.00 0.01
0.00 0.01 0.02 0.01 0.01 0.01 0.04 0.02 0.07 0.05 0.09 0.07 0.05 0.06 0.04 0.02 0.00 0.00 0.00 0.00 0.00 0.00 0.00 0.00 0.00 0.00 0.00 0.00 0.00 0.00 0.00 0.00 0.00 0.01 0.02 0.01 0.01 0.01 0.02 0.00 0.00 0.00 0.00 0.02 0.02 0.02 0.00 0.00 0.00 0.00 0.00 0.00 0.00 0.00
0.00 0.01 0.01 0.01 0.02 0.01 0.03 0.07 0.05 0.05 0.05 0.05 0.04 0.03 0.01 0.00 0.00 0.00 0.00 0.00 0.00 0.00 0.00 0.00 0.00 0.00 0.00 0.01 0.01 0.02 0.02 0.02 0.03 0.02 0.00 0.00 0.02 0.01 0.02 0.03 0.01 0.01 0.01 0.00 0.00 0.00 0.00 0.00 0.00 0.00 0.00 0.00 0.00 0.00
0.00 0.00 0.00 0.00 0.01 0.01 0.03 0.01 0.00 0.00 0.01 0.01 0.00 0.00 0.00 0.00 0.00 0.00 0.00 0.00 0.00 0.00 0.00 0.00 0.01 0.01 0.01 0.02 0.02 0.00 0.00 0.00 0.01 0.01 0.00 0.00 0.00 0.00 0.01 0.02 0.00 0.00 0.00 0.00 0.00 0.00 0.00 0.00 0.00 0.00 0.00 0.00 0.00 0.00
0.00 0.00 0.01 0.03 0.01 0.01 0.00 0.00 0.00 0.00 0.00 0.00 0.00 0.00 0.00 0.00 0.00 0.00 0.00 0.00 0.00 0.00 0.01 0.04 0.04 0.01 0.03 0.01 0.00 0.00 0.00 0.01 0.01 0.00 0.00 0.00 0.00 0.00 0.00 0.00 0.00 0.00 0.00 0.00 0.00 0.00 0.00 0.00 0.00 0.00 0.00 0.00 0.00 0.00
0.00 0.01 0.02 0.01 0.01 0.00 0.00 0.00 0.00 0.00 0.00 0.00 0.00 0.00 0.00 0.00 0.00 0.00 0.01 0.01 0.02 0.02 0.03 0.05 0.03 0.02 0.01 0.00 0.00 0.02 0.03 0.02 0.00 0.00 0.00 0.00 0.00 0.00 0.00 0.00 0.00 0.00 0.00 0.00 0.00 0.00 0.00 0.00 0.00 0.00 0.00 0.00 0.00 0.00
0.01 0.01 0.00 0.00 0.00 0.00 0.00 0.00 0.00 0.00 0.00 0.00 0.00 0.00 0.00 0.00 0.01 0.01 0.02 0.02 0.01 0.00 0.03 0.01 0.00 0.00 0.00 0.01 0.04 0.02 0.00 0.01 0.00 0.00 0.00 0.00 0.00 0.00 0.00 0.00 0.00 0.00 0.00 0.00 0.00 0.00 0.00 0.00 0.00 0.00 0.00 0.00 0.00 0.00
0.01 0.00 0.00 0.00 0.00 0.00 0.00 0.00 0.00 0.00 0.00 0.00 0.01 0.01 0.01 0.01 0.00 0.01 0.01 0.02 0.01 0.02 0.01 0.00 0.00 0.00 0.00 0.01 0.00 0.00 0.00 0.00 0.00 0.00 0.00 0.00 0.00 0.00 0.00 0.00 0.00 0.00 0.00 0.00 0.00 0.00 0.00 0.00 0.00 0.00 0.00 0.00 0.00 0.00
0.00 0.00 0.00 0.00 0.00 0.00 0.00 0.00 0.00 0.01 0.00 0.00 0.00 0.00 0.00 0.01 0.00 0.00 0.00 0.00 0.01 0.00 0.00 0.01 0.01 0.00 0.00 0.00 0.00 0.00 0.00 0.00 0.00 0.00 0.00 0.00 0.00 0.00 0.00 0.00 0.00 0.00 0.00 0.00 0.00 0.00 0.00 0.00 0.00 0.00 0.00 0.00 0.00 0.00
0.00 0.00 0.00 0.00 0.00 0.00 0.02 0.01 0.00 0.00 0.00 0.01 0.00 0.00 0.00 0.00 0.00 0.00 0.00 0.00 0.01 0.01 0.02 0.02 0.00 0.00 0.00 0.00 0.00 0.00 0.00 0.00 0.00 0.00 0.00 0.00 0.00 0.00 0.00 0.00 0.00 0.00 0.00 0.00 0.00 0.00 0.00 0.00 0.00 0.00 0.00 0.00 0.00 0.00
0.00 0.00 0.00 0.00 0.00 0.00 0.01 0.01 0.02 0.02 0.01 0.01 0.01 0.00 0.00 0.00 0.00 0.01 0.00 0.01 0.02 0.02 0.01 0.00 0.00 0.00 0.00 0.00 0.00 0.00 0.00 0.00 0.00 0.00 0.00 0.00 0.00 0.00 0.00 0.00 0.00 0.00 0.00 0.00 0.00 0.00 0.00 0.00 0.00 0.00 0.00 0.00 0.00 0.00
0.00 0.00 0.00 0.01 0.01 0.00 0.00 0.00 0.00 0.00 0.01 0.02 0.01 0.00 0.00 0.00 0.00 0.00 0.00 0.00 0.00 0.00 0.00 0.00 0.00 0.00 0.00 0.00 0.00 0.00 0.00 0.00 0.00 0.00 0.00 0.00 0.00 0.00 0.00 0.00 0.00 0.00 0.00 0.00 0.00 0.00 0.00 0.00 0.00 0.00 0.00 0.00 0.00 0.00
MSLP
1018.94 1019.63 1020.27 1020.79 1021.30 1021.76 1022.05 1022.27 1022.49 1022.60 1022.65 1022.60 1022.29 1021.79 1021.48 1021.15 1020.64 1019.55 1017.32 1017.45 1016.20 1013.68 1012.35 1012.60 1012.20 1011.94 1011.29 1010.73 1009.65 1009.79 1008.84 1008.01 1006.88 1005.91 1004.58 1003.75 1003.01 1002.03 1001.77 1002.45 1002.41 1001.71 1001.95 1001.40 1001.43 1001.51 1002.49 1002.27 1002.41 1001.98 1003.49 1003.50 1003.57 1004.34
1018.07 1018.84 1019.69 1020.33 1020.94 1021.39 1021.76 1022.07 1022.32 1022.57 1022.63 1022.61 1022.38 1021.94 1021.67 1021.45 1020.77 1019.97 1016.93 1016.98 1016.80 1015.27 1013.12 1013.25 1013.05 1013.04 1013.01 1012.85 1012.38 1010.76 1010.32 1010.04 1009.48 1007.66 1006.15 1005.93 1005.19 1004.21 1003.26 1002.19 1002.99 1002.71 1003.22 1003.09 1003.56 1004.08 1004.69 1004.21 1005.22 1004.55 1004.97 1004.69 1004.65 1005.25
1017.35 1018.26 1019.15 1019.89 1020.51 1021.01 1021.45 1021.75 1022.08 1022.43 1022.59 1022.61 1022.30 1022.04 1021.79 1021.56 1021.05 1020.45 1017.97 1017.31 1016.03 1014.51 1012.62 1012.14 1011.95 1012.81 1012.88 1012.91 1012.55 1011.95 1011.13 1012.07 1010.93 1010.81 1008.73 1007.78 1008.01 1006.47 1004.10 1002.96 1002.87 1003.57 1003.79 1003.22 1004.20 1004.93 1005.37 1005.65 1005.95 1005.84 1005.93 1005.61 1005.61 1006.01
1016.66 1017.71 1018.63 1019.38 1020.07 1020.63 1021.16 1021.49 1021.78 1022.14 1022.46 1022.43 1022.24 1022.05 1021.82 1021.57 1021.11 1020.43 1017.88 1017.47 1016.49 1015.08 1013.01 1011.99 1012.36 1012.44 1013.04 1012.87 1012.93 1012.80 1012.77 1012.59 1012.17 1010.96 1009.58 1008.91 1008.29 1007.09 1005.75 1004.63 1003.79 1003.85 1004.09 1004.00 1004.32 1005.23 1005.60 1006.09 1006.39 1006.44 1006.51 1006.61 1006.42 1006.77
1016.10 1017.11 1018.15 1018.97 1019.59 1020.26 1020.82 1021.18 1021.64 1021.91 1022.15 1022.26 1022.17 1021.99 1021.83 1021.51 1021.03 1020.06 1018.14 1017.74 1017.34 1016.71 1013.89 1011.81 1012.12 1012.33 1012.33 1012.82 1012.63 1012.75 1012.82 1012.61 1011.46 1010.79 1010.22 1010.26 1010.36 1009.69 1006.97 1005.71 1005.05 1004.49 1004.84 1004.86 1005.59 1006.09 1006.09 1006.62 1007.34 1007.23 1007.03 1007.13 1007.22 1007.40
1015.63 1016.63 1017.60 1018.48 1019.24 1019.85 1020.47 1021.03 1021.29 1021.72 1021.93 1022.12 1022.04 1021.95 1021.81 1021.35 1020.85 1018.97 1017.71 1017.71 1017.54 1017.34 1015.38 1011.94 1011.99 1012.22 1012.37 1012.45 1012.41 1012.51 1012.33 1012.21 1011.75 1011.33 1011.23 1011.40 1011.53 1012.06 1009.36 1007.30 1006.63 1005.83 1006.11 1006.11 1006.46 1007.17 1007.41 1007.72 1008.05 1007.75 1007.84 1007.50 1007.88 1008.03
1015.27 1016.13 1017.01 1017.97 1018.80 1019.47 1020.26 1020.81 1021.16 1021.47 1021.88 1021.97 1021.82 1021.89 1021.66 1021.34 1020.46 1019.26 1019.27 1019.16 1019.34 1017.96 1015.51 1012.70 1010.93 1011.72 1012.01 1012.11 1011.83 1011.58 1012.08 1011.51 1011.59 1011.51 1011.55 1011.98 1012.97 1012.59 1010.62 1009.32 1009.05 1007.35 1007.23 1007.81 1007.80 1007.61 1007.84 1007.97 1008.28 1008.54 1008.71 1009.03 1009.03 1009.25
1014.95 1015.74 1016.53 1017.55 1018.55 1019.29 1020.00 1020.63 1021.02 1021.45 1021.75 1021.69 1021.80 1021.66 1021.34 1021.10 1020.75 1019.54 1018.91 1019.62 1019.51 1017.42 1015.59 1012.98 1010.84 1011.12 1011.89 1011.15 1010.81 1011.20 1010.85 1010.97 1011.27 1010.98 1011.77 1011.98 1012.59 1012.92 1011.47 1010.50 1009.91 1011.33 1009.91 1008.95 1008.64 1008.43 1008.34 1008.58 1008.92 1008.94 1009.48 1009.95 1011.09 1011.61
1014.59 1015.38 1016.26 1017.34 1018.37 1019.13 1019.79 1020.41 1020.95 1021.39 1021.57 1021.65 1021.65 1021.40 1020.48 1020.09 1018.45 1018.82 1019.61 1019.53 1018.63 1017.69 1014.75 1012.73 1010.63 1010.22 1011.25 1010.86 1010.37 1010.92 1010.98 1010.21 1010.45 1010.67 1010.95 1011.41 1011.90 1012.00 1010.83 1010.77 1011.01 1011.19 1010.50 1010.23 1010.01 1009.39 1009.19 1009.04 1009.60 1008.56 1010.24 1011.37 1012.00 1012.61
1013.97 1014.78 1015.94 1017.21 1018.28 1019.04 1019.65 1020.31 1020.92 1021.38 1021.57 1021.61 1021.29 1019.62 1018.08 1018.22 1019.71 1019.59 1019.39 1018.01 1017.26 1015.94 1015.23 1013.08 1011.13 1010.29 1010.70 1010.19 1010.37 1010.43 1010.31 1009.90 1009.33 1009.32 1009.88 1010.91 1010.36 1009.69 1010.31 1010.96 1011.10 1010.86 1010.80 1010.59 1009.91 1009.47 1009.47 1009.44 1009.63 1009.71 1010.35 1010.51 1012.13 1012.10
1013.89 1015.12 1016.09 1017.26 1018.26 1018.87 1019.59 1020.29 1020.95 1021.48 1021.71 1020.71 1018.98 1017.48 1018.39 1019.51 1018.83 1017.70 1016.84 1016.14 1014.97 1014.23 1013.25 1012.41 1011.34 1010.61 1010.87 1010.71 1010.69 1011.29 1010.63 1010.81 1009.64 1008.90 1009.63 1009.44 1009.50 1009.96 1011.09 1011.50 1011.30 1010.97 1010.50 1010.28 1010.53 1010.22 1010.15 1010.27 1009.98 1010.60 1011.10 1011.31 1011.64 1012.26
1015.17 1015.95 1016.73 1017.45 1018.23 1018.95 1019.67 1020.33 1020.92 1021.10 1019.28 1019.69 1019.05 1018.53 1018.13 1017.81 1017.09 1016.53 1015.60 1014.52 1013.69 1012.32 1012.12 1011.81 1011.50 1011.48 1011.40 1011.84 1011.51 1011.73 1011.32 1011.22 1010.11 1010.88 1009.93 1009.67 1010.63 1011.12 1011.37 1011.82 1011.97 1011.78 1011.68 1011.70 1011.61 1011.48 1011.51 1011.60 1011.76 1011.78 1011.89 1011.99 1012.25 1012.58
1015.91 1016.59 1017.38 1018.02 1018.54 1019.11 1019.73 1020.37 1020.69 1020.56 1019.93 1019.15 1018.69 1017.47 1016.91 1016.87 1016.39 1015.20 1013.74 1012.68 1011.85 1012.03 1012.01 1012.07 1011.85 1011.88 1012.20 1012.25 1012.03 1011.93 1011.81 1011.01 1010.63 1010.46 1010.04 1010.82 1011.87 1012.09 1012.20 1012.26 1012.48 1012.57 1012.51 1012.49 1012.44 1012.43 1012.33 1012.39 1012.40 1012.65 1012.56 1012.46 1012.55 1012.64
1016.29 1016.96 1017.65 1018.27 1018.74 1019.35 1019.96 1020.45 1020.75 1020.61 1019.86 1017.55 1017.12 1017.35 1016.33 1015.17 1014.00 1012.70 1011.78 1011.01 1011.66 1011.63 1011.79 1011.71 1011.27 1011.93 1011.57 1012.55 1012.26 1012.27 1011.63 1011.10 1011.34 1010.25 1010.35 1011.81 1012.89 1013.37 1013.46 1013.36 1013.16 1013.09 1013.15 1013.05 1013.03 1012.99 1012.89 1012.85 1012.88 1012.85 1012.74 1012.61 1012.77 1012.85
1016.66 1017.27 1017.85 1018.51 1019.00 1019.62 1020.17 1020.57 1020.76 1020.06 1018.31 1016.98 1016.37 1015.55 1014.62 1013.39 1012.91 1012.25 1011.84 1012.04 1012.49 1012.37 1012.20 1012.37 1011.85 1011.81 1011.84 1011.97 1011.72 1011.84 1012.26 1011.36 1010.89 1011.17 1012.16 1013.07 1013.66 1013.94 1013.93 1014.09 1013.92 1013.63 1013.70 1013.67 1013.61 1013.44 1013.30 1013.26 1013.24 1013.07 1012.96 1012.97 1012.93 1013.02
1017.05 1017.77 1018.07 1018.67 1019.30 1019.87 1020.37 1020.69 1020.29 1018.81 1017.62 1016.75 1015.92 1014.36 1013.59 1013.22 1012.32 1012.28 1012.13 1011.84 1012.07 1012.17 1012.47 1012.23 1011.87 1011.67 1011.57 1011.41 1011.33 1011.47 1010.95 1011.46 1012.41 1012.92 1013.13 1013.54 1013.97 1014.18 1014.24 1014.18 1014.20 1014.31 1014.39 1014.38 1014.30 1014.13 1013.96 1013.61 1013.37 1013.53 1013.51 1013.25 1013.69 1014.11
1017.42 1017.35 1018.07 1018.95 1019.59 1020.07 1020.18 1019.53 1018.58 1017.77 1016.33 1015.87 1014.61 1013.91 1012.89 1012.22 1011.73 1011.45 1011.56 1011.55 1012.56 1012.83 1013.04 1012.56 1012.09 1011.77 1011.44 1011.29 1011.13 1011.10 1011.66 1012.40 1013.14 1013.60 1013.98 1014.19 1014.27 1014.42 1014.49 1014.53 1014.75 1015.13 1015.11 1015.05 1015.12 1014.97 1014.68 1014.27 1013.75 1013.67 1013.85 1014.33 1014.30 1014.36
1017.34 1017.81 1018.57 1019.38 1019.75 1020.12 1019.48 1018.81 1017.44 1016.67 1015.78 1014.69 1013.81 1013.38 1013.21 1013.20 1012.62 1012.37 1012.36 1012.49 1012.91 1013.12 1013.07 1012.65 1012.01 1012.09 1011.71 1011.39 1011.91 1011.42 1012.21 1012.78 1012.97 1013.45 1013.68 1014.29 1014.62 1014.78 1014.81 1015.29 1015.58 1015.63 1015.59 1015.51 1015.29 1015.05 1014.84 1014.79 1014.70 1014.64 1014.45 1014.57 1014.43 1014.67
1017.35 1018.19 1019.03 1019.39 1019.26 1019.01 1018.23 1018.07 1017.37 1015.66 1014.53 1013.73 1013.45 1013.35 1013.40 1013.01 1013.15 1013.40 1012.87 1013.03 1013.11 1012.86 1012.56 1012.16 1012.04 1012.11 1012.43 1011.63 1012.06 1013.01 1013.33 1013.68 1013.85 1013.85 1013.77 1014.51 1014.90 1015.24 1015.67 1015.88 1015.68 1015.82 1015.97 1015.92 1015.82 1015.52 1015.37 1015.33 1015.20 1015.05 1014.95 1014.93 1014.72 1014.89
1018.24 1018.91 1019.45 1019.66 1019.63 1018.68 1017.90 1017.09 1017.29 1015.92 1014.23 1013.75 1013.39 1013.26 1013.25 1013.75 1013.69 1012.80 1012.59 1012.65 1012.57 1012.44 1012.18 1012.14 1012.26 1012.89 1012.00 1012.19 1012.76 1013.47 1013.66 1013.56 1013.61 1013.38 1013.39 1014.00 1014.67 1015.48 1015.80 1016.03 1016.27 1016.24 1016.23 1016.25 1016.04 1016.17 1015.87 1015.79 1015.91 1015.61 1015.55 1015.77 1015.53 1015.37
1019.01 1019.63 1019.83 1019.72 1018.91 1018.62 1017.54 1016.16 1015.77 1015.14 1014.51 1013.72 1013.26 1013.48 1013.95 1014.26 1013.67 1012.68 1012.87 1012.63 1012.48 1012.17 1012.28 1012.42 1012.60 1012.89 1013.67 1013.95 1013.79 1013.88 1014.09 1014.48 1014.32 1014.45 1014.61 1014.79 1015.22 1016.14 1016.46 1016.62 1016.75 1016.51 1016.55 1016.55 1016.24 1016.44 1016.13 1016.06 1016.13 1016.05 1015.86 1015.55 1015.43 1015.87
1018.97 1019.50 1018.56 1018.55 1017.87 1017.47 1016.93 1015.99 1015.66 1014.70 1014.52 1014.34 1014.29 1014.12 1014.00 1013.96 1013.71 1013.19 1013.14 1012.64 1011.89 1012.10 1012.13 1012.55 1012.91 1013.46 1013.73 1014.31 1014.37 1014.91 1015.06 1015.38 1015.43 1015.46 1015.72 1016.13 1016.36 1016.73 1016.83 1016.87 1016.85 1016.79 1016.63 1016.45 1016.23 1016.11 1016.26 1016.21 1016.29 1016.40 1016.11 1015.18 1014.97 1014.72
1019.50 1019.01 1018.33 1017.79 1017.26 1016.94 1016.41 1015.71 1015.36 1014.75 1014.35 1014.17 1013.74 1013.65 1013.14 1013.23 1013.28 1013.64 1012.79 1012.37 1012.24 1013.00 1013.33 1013.67 1014.25 1014.81 1014.91 1015.04 1015.42 1015.57 1015.72 1015.77 1015.49 1015.45 1016.22 1016.62 1016.83 1017.01 1016.86 1016.93 1016.95 1016.72 1016.47 1016.03 1015.88 1015.90 1016.33 1016.49 1016.13 1015.96 1015.13 1014.71 1014.45 1014.05
1019.58 1018.58 1017.73 1017.16 1016.55 1015.99 1015.35 1015.22 1014.87 1014.54 1014.21 1013.94 1013.69 1013.43 1013.24 1013.28 1013.70 1013.20 1012.99 1012.42 1012.60 1013.50 1013.86 1014.59 1014.55 1014.44 1014.85 1015.65 1015.59 1015.71 1016.16 1016.17 1016.18 1016.30 1016.57 1016.76 1016.85 1016.84 1016.70 1016.31 1016.01 1015.85 1015.59 1015.50 1015.54 1015.56 1015.73 1015.65 1015.61 1014.77 1014.16 1013.74 1013.64 1013.61
1018.89 1018.36 1017.63 1016.91 1015.97 1015.47 1015.04 1014.41 1014.35 1014.01 1013.91 1013.76 1013.57 1013.57 1013.53 1014.04 1013.45 1013.84 1013.93 1013.19 1013.08 1013.42 1013.75 1014.50 1014.70 1015.08 1015.25 1015.63 1016.08 1016.53 1016.64 1016.57 1016.47 1016.46 1016.55 1016.33 1016.54 1016.58 1016.01 1015.67 1015.03 1014.42 1014.13 1014.16 1014.32 1014.47 1014.74 1014.88 1014.88 1014.56 1014.13 1014.09 1014.15 1013.80
1018.42 1017.27 1017.27 1015.75 1015.34 1014.83 1014.45 1014.31 1014.36 1014.10 1013.95 1014.03 1013.97 1014.07 1014.29 1013.85 1014.07 1014.46 1013.48 1013.96 1014.21 1014.52 1014.77 1015.10 1015.27 1015.39 1015.87 1016.19 1016.54 1016.63 1016.63 1016.47 1016.18 1015.52 1015.53 1015.45 1015.67 1015.32 1014.91 1014.70 1014.01 1014.03 1013.91 1014.28 1014.41 1014.52 1014.33 1014.32 1014.78 1014.31 1014.23 1014.48 1014.53 1014.12
1017.57 1016.44 1016.06 1015.49 1015.13 1014.69 1014.39 1014.32 1014.33 1014.28 1014.19 1014.03 1013.97 1014.23 1014.53 1014.30 1014.48 1014.02 1014.22 1014.58 1014.81 1015.46 1015.80 1015.89 1015.83 1015.78 1016.01 1016.38 1016.52 1016.38 1016.17 1015.75 1015.03 1014.69 1014.99 1014.99 1014.69 1014.58 1014.57 1014.72 1014.69 1013.97 1014.05 1014.57 1014.63 1014.76 1014.67 1014.69 1014.46 1014.20 1013.99 1013.73 1013.78 1013.84
1017.09 1016.45 1015.89 1015.58 1015.19 1014.95 1014.63 1014.41 1014.41 1014.26 1014.07 1013.99 1014.48 1014.40 1014.41 1014.29 1014.68 1015.09 1015.41 1015.83 1015.83 1016.00 1016.25 1016.15 1016.25 1016.29 1016.27 1016.21 1015.92 1015.26 1014.71 1014.49 1014.71 1014.43 1013.85 1013.51 1013.64 1013.84 1014.08 1013.93 1014.19 1014.82 1014.69 1014.57 1014.63 1014.62 1014.77 1014.58 1014.37 1014.58 1014.07 1013.65 1013.72 1013.81
1016.92 1016.52 1016.03 1015.59 1015.25 1014.99 1014.80 1014.63 1015.13 1015.19 1015.13 1015.26 1015.29 1015.09 1015.07 1015.05 1015.51 1015.71 1015.76 1016.19 1016.36 1016.24 1016.22 1016.19 1016.19 1016.03 1015.50 1015.33 1014.83 1014.43 1014.15 1013.92 1013.89 1013.85 1013.99 1014.24 1013.74 1013.45 1013.28 1013.55 1014.04 1014.09 1013.99 1014.34 1015.02 1014.88 1014.83 1014.66 1014.55 1014.48 1013.93 1013.62 1013.54 1013.51
1017.06 1016.70 1016.74 1016.16 1015.77 1015.46 1015.30 1014.98 1015.30 1015.68 1016.05 1016.66 1016.59 1016.57 1016.36 1016.30 1016.51 1016.71 1016.51 1016.31 1016.14 1016.11 1015.71 1015.12 1014.69 1014.62 1014.22 1013.83 1013.65 1013.49 1013.21 1013.10 1013.11 1012.85 1012.55 1012.47 1012.84 1013.24 1012.87 1013.22 1013.29 1013.31 1013.43 1013.57 1013.70 1014.35 1014.79 1014.69 1014.48 1014.47 1014.26 1013.49 1013.55 1013.51
1017.65 1017.05 1017.04 1016.91 1016.65 1016.29 1015.97 1015.59 1015.89 1016.21 1016.56 1016.65 1016.80 1016.69 1016.45 1016.29 1016.26 1016.38 1016.23 1016.07 1015.81 1015.27 1014.97 1014.55 1014.44 1014.29 1013.95 1013.22 1013.27 1014.05 1013.36 1012.62 1012.81 1012.84 1012.75 1012.22 1012.27 1012.75 1012.91 1013.05 1013.15 1013.25 1013.32 1013.39 1013.53 1013.55 1013.62 1013.58 1013.50 1013.32 1013.23 1013.49 1013.57 1013.64
1017.72 1017.39 1017.11 1016.72 1016.55 1016.53 1016.44 1016.18 1016.07 1016.04 1016.15 1016.11 1015.99 1015.92 1015.70 1015.51 1015.08 1015.20 1015.22 1015.46 1015.16 1014.58 1014.35 1014.59 1014.29 1013.39 1012.61 1012.53 1012.44 1012.70 1013.45 1012.55 1012.56 1012.81 1013.21 1013.02 1012.96 1013.06 1013.13 1013.13 1013.12 1013.17 1013.27 1013.27 1013.11 1013.11 1013.25 1013.19 1013.13 1013.15 1013.06 1013.23 1013.54 1013.84
1016.80 1016.55 1016.34 1016.00 1015.88 1015.87 1015.81 1015.51 1015.26 1015.21 1015.02 1014.63 1014.48 1014.01 1013.65 1013.54 1013.65 1013.69 1014.09 1014.14 1013.57 1013.05 1012.97 1012.84 1012.57 1012.41 1012.94 1013.11 1012.91 1012.83 1013.22 1013.54 1014.06 1014.21 1014.26 1014.27 1014.20 1013.91 1013.75 1013.26 1013.16 1013.33 1013.26 1013.11 1012.93 1012.92 1012.95 1013.20 1013.39 1013.47 1013.75 1013.75 1013.92 1014.11
Thickness
5508 5506 5505 5505 5507 5509 5512 5516 5520 5525 5529 5532 5537 5545 5551 5556 5563 5573 5592 5591 5601 5619 5629 5627 5632 5629 5639 5645 5650 5652 5670 5682 5696 5693 5712 5724 5728 5749 5747 5734 5738 5747 5746 5760 5772 5755 5732 5779 5777 5768 5768 5785 5787 5782
5504 5502 5500 5501 5501 5503 5507 5510 5514 5518 5522 5525 5531 5538 5543 5547 5557 5566 5592 5590 5594 5603 5620 5623 5625 5628 5627 5629 5630 5649 5650 5654 5666 5683 5697 5698 5703 5716 5725 5726 5740 5731 5738 5732 5733 5724 5723 5758 5749 5767 5772 5772 5776 5775
5502 5498 5496 5496 5497 5499 5502 5506 5509 5512 5516 5519 5525 5532 5537 5541 5549 5558 5579 5584 5595 5604 5621 5624 5624 5625 5630 5630 5638 5630 5644 5638 5653 5660 5675 5684 5663 5696 5704 5724 5730 5734 5745 5745 5733 5732 5736 5740 5746 5757 5762 5765 5770 5771
5501 5496 5494 5492 5493 5494 5496 5501 5504 5507 5509 5514 5519 5525 5530 5537 5545 5553 5574 5578 5587 5597 5606 5616 5625 5620 5623 5626 5626 5630 5629 5635 5640 5654 5661 5665 5666 5684 5689 5700 5720 5722 5733 5730 5731 5730 5736 5737 5742 5748 5750 5755 5758 5760
5497 5493 5490 5489 5490 5490 5492 5497 5500 5502 5505 5509 5514 5519 5525 5532 5541 5550 5565 5570 5575 5580 5597 5614 5618 5620 5623 5619 5621 5623 5623 5624 5636 5640 5645 5641 5647 5657 5690 5705 5706 5725 5710 5712 5697 5716 5723 5722 5730 5737 5739 5740 5745 5744
5494 5489 5488 5486 5485 5486 5488 5491 5496 5497 5501 5503 5509 5514 5519 5528 5537 5552 5566 5566 5569 5572 5583 5605 5616 5610 5614 5616 5616 5616 5619 5621 5627 5628 5629 5633 5641 5632 5652 5672 5689 5703 5707 5710 5701 5711 5710 5716 5718 5726 5726 5733 5734 5733
5490 5487 5485 5483 5482 5482 5482 5486 5490 5494 5495 5499 5505 5510 5515 5523 5532 5550 5554 5555 5554 5564 5580 5596 5609 5611 5612 5610 5614 5617 5616 5620 5621 5620 5618 5615 5610 5623 5638 5645 5666 5687 5693 5692 5699 5703 5696 5704 5701 5709 5714 5715 5718 5718
5485 5484 5482 5479 5477 5477 5478 5480 5485 5489 5491 5497 5500 5506 5513 5519 5527 5543 5545 5544 5548 5564 5577 5587 5604 5605 5608 5606 5606 5615 5613 5617 5615 5618 5612 5608 5607 5608 5615 5636 5657 5632 5655 5674 5683 5690 5691 5695 5695 5697 5697 5694 5675 5670
5478 5478 5477 5475 5474 5476 5477 5477 5480 5484 5489 5493 5497 5503 5513 5523 5543 5543 5536 5540 5547 5557 5575 5589 5599 5597 5609 5606 5612 5607 5609 5607 5618 5610 5608 5611 5601 5594 5623 5632 5635 5637 5641 5653 5663 5672 5675 5678 5679 5683 5678 5668 5660 5658
5471 5474 5472 5470 5469 5470 5472 5473 5475 5478 5484 5489 5497 5518 5534 5534 5523 5528 5536 5547 5551 5563 5567 5577 5603 5597 5604 5606 5601 5602 5607 5606 5605 5618 5620 5603 5612 5632 5632 5630 5633 5636 5640 5646 5649 5653 5658 5661 5664 5669 5666 5670 5652 5658
5461 5459 5461 5461 5461 5465 5466 5468 5469 5472 5478 5494 5516 5530 5524 5517 5527 5539 5544 5549 5562 5561 5576 5583 5593 5593 5602 5592 5591 5590 5592 5591 5595 5614 5609 5613 5615 5619 5620 5618 5625 5631 5638 5642 5644 5650 5653 5654 5658 5654 5652 5655 5655 5650
5438 5440 5444 5449 5453 5456 5459 5462 5465 5470 5494 5499 5509 5513 5521 5525 5533 5534 5541 5555 5559 5568 5579 5579 5584 5588 5590 5589 5585 5585 5582 5585 5585 5597 5603 5604 5600 5610 5613 5611 5612 5618 5622 5624 5629 5632 5635 5636 5638 5639 5641 5642 5643 5642
5419 5422 5427 5434 5440 5446 5451 5455 5461 5469 5482 5493 5505 5516 5523 5523 5515 5530 5539 5557 5566 5570 5574 5575 5575 5579 5579 5579 5577 5577 5572 5581 5600 5589 5597 5593 5592 5599 5601 5604 5604 5607 5611 5613 5615 5619 5622 5623 5627 5625 5627 5631 5632 5632
5408 5411 5416 5422 5430 5436 5443 5449 5455 5465 5479 5504 5509 5489 5516 5524 5538 5553 5563 5572 5571 5574 5574 5577 5581 5573 5581 5564 5572 5562 5582 5589 5575 5589 5592 5587 5581 5582 5585 5590 5594 5596 5599 5603 5605 5608 5610 5612 5614 5617 5620 5623 5622 5622
5399 5406 5408 5413 5420 5427 5434 5442 5451 5463 5488 5502 5511 5505 5525 5544 5549 5557 5563 5561 5561 5567 5569 5566 5573 5574 5571 5569 5576 5575 5565 5575 5585 5581 5577 5574 5572 5573 5577 5578 5583 5589 5590 5593 5597 5600 5603 5604 5605 5608 5611 5613 5615 5615
5391 5396 5403 5409 5414 5420 5426 5435 5448 5470 5487 5499 5509 5524 5536 5537 5547 5549 5553 5558 5565 5566 5567 5569 5567 5566 5567 5573 5571 5569 5580 5572 5569 5569 5571 5571 5569 5570 5572 5577 5579 5580 5582 5583 5586 5589 5592 5596 5599 5598 5600 5604 5601 5597
5389 5399 5402 5405 5411 5416 5424 5441 5459 5473 5494 5500 5515 5528 5539 5546 5549 5555 5558 5562 5560 5554 5547 5557 5554 5560 5576 5570 5572 5581 5568 5568 5565 5562 5562 5565 5566 5568 5570 5572 5572 5570 5571 5574 5574 5576 5580 5585 5591 5592 5589 5587 5589 5589
5394 5398 5399 5403 5410 5415 5429 5445 5466 5480 5491 5508 5517 5527 5532 5535 5540 5546 5551 5554 5551 5547 5550 5551 5569 5560 5562 5565 5561 5580 5574 5572 5572 5568 5568 5565 5565 5565 5567 5563 5562 5563 5564 5567 5570 5573 5575 5575 5575 5576 5579 5579 5580 5577
5396 5398 5398 5404 5413 5426 5442 5450 5465 5485 5501 5515 5521 5527 5529 5536 5539 5539 5546 5549 5552 5556 5559 5562 5561 5558 5556 5573 5569 5562 5561 5559 5558 5563 5567 5563 5562 5560 5557 5557 5561 5560 5558 5559 5560 5564 5565 5566 5567 5569 5570 5569 5570 5568
5393 5395 5399 5404 5413 5429 5444 5460 5465 5481 5499 5510 5520 5524 5528 5526 5532 5545 5549 5550 5553 5555 5555 5556 5559 5554 5569 5570 5568 5561 5561 5564 5566 5567 5568 5566 5563 5557 5555 5554 5552 5553 5553 5552 5554 5551 5556 5557 5556 5559 5559 5556 5556 5557
5390 5392 5397 5406 5423 5432 5449 5468 5477 5488 5498 5510 5522 5524 5521 5521 5528 5541 5540 5550 5549 5551 5551 5558 5561 5562 5558 5557 5562 5562 5560 5557 5557 5557 5557 5557 5557 5549 5546 5544 5544 5546 5544 5543 5548 5545 5549 5551 5550 5551 5552 5554 5554 5547
5397 5398 5414 5421 5436 5446 5457 5472 5479 5496 5501 5507 5512 5518 5517 5520 5525 5533 5541 5543 5552 5554 5560 5560 5560 5558 5557 5552 5554 5551 5550 5547 5548 5548 5538 5540 5541 5538 5538 5538 5540 5540 5541 5543 5546 5547 5546 5548 5547 5544 5546 5555 5554 5558
5400 5409 5423 5436 5445 5448 5460 5478 5483 5496 5501 5507 5519 5520 5529 5531 5534 5534 5539 5547 5551 5552 5552 5551 5548 5545 5545 5546 5544 5543 5543 5542 5546 5547 5539 5535 5532 5532 5535 5535 5535 5537 5538 5546 5549 5549 5544 5540 5545 5547 5555 5557 5557 5560
5409 5422 5434 5445 5459 5464 5479 5481 5492 5500 5506 5511 5517 5521 5527 5531 5532 5536 5533 5547 5551 5547 5545 5540 5545 5548 5546 5539 5540 5541 5537 5537 5537 5536 5533 5531 5531 5532 5536 5541 5544 5546 5548 5551 5551 5551 5549 5550 5549 5556 5560 5561 5560 5558
5420 5429 5440 5431 5468 5474 5480 5493 5497 5506 5508 5514 5518 5521 5526 5526 5531 5521 5520 5540 5546 5547 5547 5542 5543 5541 5540 5540 5536 5531 5531 5531 5533 5532 5532 5536 5532 5535 5542 5546 5553 5559 5562 5561 5559 5558 5555 5553 5552 5554 5556 5554 5551 5553
5421 5451 5444 5472 5478 5483 5490 5493 5496 5504 5510 5511 5516 5521 5522 5528 5522 5506 5537 5535 5536 5536 5537 5536 5535 5537 5533 5533 5529 5529 5530 5531 5536 5545 5545 5548 5544 5548 5553 5553 5559 5559 5563 5559 5557 5554 5555 5555 5549 5552 5551 5547 5542 5547
5443 5465 5472 5481 5486 5494 5499 5504 5508 5509 5509 5513 5520 5520 5519 5520 5515 5533 5537 5535 5534 5529 5528 5529 5531 5533 5532 5529 5528 5531 5534 5540 5548 5552 5550 5551 5555 5556 5556 5552 5550 5559 5561 5555 5554 5551 5550 5549 5550 5551 5551 5553 5551 5549
5468 5476 5478 5486 5492 5499 5500 5506 5508 5511 5518 5525 5522 5521 5522 5526 5525 5527 5527 5524 5526 5526 5524 5527 5526 5526 5528 5531 5534 5544 5549 5552 5551 5554 5560 5564 5564 5562 5560 5561 5559 5550 5554 5555 5553 5553 5550 5550 5550 5546 5549 5550 5548 5546
5479 5485 5491 5494 5500 5504 5507 5511 5506 5510 5516 5517 5519 5522 5525 5527 5526 5526 5526 5522 5520 5523 5524 5525 5528 5532 5539 5540 5547 5552 5555 5556 5555 5552 5548 5544 5554 5559 5565 5563 5558 5558 5559 5555 5545 5546 5548 5548 5547 5546 5548 5548 5547 5546
5487 5493 5490 5498 5502 5505 5509 5516 5516 5514 5511 5505 5509 5509 5513 5516 5516 5516 5517 5521 5525 5525 5533 5540 5545 5546 5549 5553 5555 5558 5562 5564 5564 5565 5564 5563 5561 5562 5567 5563 5562 5562 5561 5559 5557 5550 5542 5544 5543 5542 5541 5546 5542 5540
5488 5496 5493 5495 5497 5505 5509 5516 5514 5512 5508 5506 5506 5507 5511 5516 5518 5520 5522 5525 5530 5537 5540 5544 5546 5548 5551 5558 5557 5549 5555 5567 5567 5567 5567 5572 5571 5566 5564 5563 5562 5560 5558 5556 5553 5552 5551 5549 5547 5546 5544 5538 5535 5531
5487 5489 5493 5497 5502 5506 5508 5511 5513 5514 5514 5516 5517 5517 5521 5526 5533 5534 5535 5533 5536 5541 5543 5541 5543 5551 5566 5567 5568 5566 5558 5568 5568 5566 5563 5564 5564 5563 5561 5560 5559 5557 5554 5552 5552 5550 5547 5546 5544 5541 5539 5535 5530 5525
5502 5504 5506 5513 5514 5515 5518 5523 5528 5528 5532 5537 5538 5545 5549 5549 5544 5547 5547 5548 5551 5556 5557 5560 5564 5566 5563 5561 5563 5564 5560 5558 5551 5548 5549 5548 5547 5550 5553 5556 5555 5551 5549 5548 5548 5547 5544 5540 5536 5533 5527 5525 5521 5517